User: anonymous   Login
Location: Unspecified
(0.0000°N, 0.0000°E)
Time: 22:00:04
(UTC+01:00)
Language:

Cosmos 1703 - Orbit

View from above orbital plane
View from above orbital plane
View from above satellite
View from above satellite

Ground track
Ground track

The orbit data is extracted from the following two-line orbital elements,

1 16262U 85108A   16044.89403015 +.00002529 +00000-0 +15605-3 0  9992
2 16262 082.4912 010.1578 0010844 153.1364 207.0429 15.09459992644806
Epoch (UTC): 13 February 2016 21:27:24
Eccentricity: 0.0010844
inclination: 82.4912°
perigee height: 530 km
apogee height: 545 km
right ascension of ascending node: 10.1578°
argument of perigee: 153.1364°
revolutions per day: 15.09459992
mean anomaly at epoch: 207.0429°
orbit number at epoch: 64480

The dashed part of the orbit path shows where the satellite is in the earth's shadow,  

DLR